DECAYED
Showing default

CUNYSAT-1, 39470 (Decayed)

Orbit data source: Space-Track

CUNYSAT-1, 39470 was a payload satellite owned by CUNY (US) in LEO that was launched on Fri, 06 Dec 2013 UTC via an ATLAS V 501 launch vehicle from the Air Force Western Test Range (AFWTR). Payload-class satellites include a variety of spacecraft equipped with specific instruments for various scientific and technological missions. These include communications satellites like Starlink; space stations such as the ISS; scientific satellites like the Hubble; Earth observation satellites from companies like Planet Labs, Umbra, and HawkEye 360; GPS; miniature CubeSats for education and research; and military/defense satellites.

Not visible in the next 10 days
Identifier
39470, 2013-072J
Orbit
Decayed
Country
Flag of USUS
Related business
Manufacturer
CUNY
Mission
Decayed Amateur Science
Bus & Motor
CUBESAT 1U, Unknown motor
Mass
1 kg wet, 1 kg dry
Launch date (UTC)
2013-12-06 (12 years ago)
Launch vehicle
ATLAS V 501
Launch site
Air Force Western Test Range (AFWTR)
Object type
Payload
Rocket body
Debris
Shape & HBR
Box, 0.1 m
Radar Cross Section
0.015 m², Small (<0.1 m²)

Expand to show TLE details & history
Last TLE update: 6 months ago

TLE from 6 months ago
0 CUNYSAT-1
1 39470U 13072J   25287.64401993  .09445915  14032-4  12816-2 0  9997
2 39470 120.4301 325.2201 0007777 216.2849 143.7751 16.34606714 80577
Epoch: 2025-10-14T15:27Z
TLE epoch observation values (Epoch: 2025-10-14T15:27:23.321Z)
Latitude
-0.00005°
Longitude
69.94346°
Altitude
185.936 km
Speed
7.793 km/s
True Right ascension
21h 40m 52s
True Declination
0° 00' 00"
Sunlit
Object was in full shadow at epoch
Visualization orbit readout
Latitude
Unknown
Longitude
Unknown
Altitude
Unknown
Speed
Unknown
Apparent Right ascension
Unknown
Apparent Declination
Unknown
Sunlit
N/A
Visualization observer readout
Local Sidereal Time
19:17:52
Azimuth
Unknown
Elevation
Unknown
Doppler factor
Unknown
Orbital elements
Apogee altitude
184.519 km
Perigee altitude
174.319 km
Semi-major axis
6,557.556 km
Eccentricity
0.00078
Inclination
120.4301°
RAAN
325.2201°
Arg. of periapsis
216.2849°
True anomaly
143.82772°
Mean anomaly
143.7751°
Eccentric anomaly
143.80142°
Mean motion
4.08724 °/min
Orbital period
88.08 mins
BSTAR
0.0012816
Loading maneuver chart data...
Computing Atmospheric mass density...
Loading historical data...
Loading historical data...
Loading historical data...
Loading historical data...
Loading historical data...
Loading historical data...
Loading historical data...

Documentation

Showing up to 5 results
|